COSMOS 1275 DEB, 17619

Orbit data source: Space-Track

COSMOS 1275 DEB, 17619 is space debris in LEO originally from a launch on Thu, 04 Jun 1981 UTC launched from the Plesetsk Missile And Space Complex (PKMTR). Debris objects in space refer to the collection of defunct objects orbiting the Earth. Examples of debris include non-operational satellites, rocket bodies, and fragments generated from explosions, collisions, or faulty payload assembly.

Loading next visibility...
Identifier
17619, 1981-053KN
Orbit
LEO
Country
Flag of CISCIS
Related business
Manufacturer
Unknown
Mission
Spacecraft
Bus & Motor
Unknown
Mass
Unknown
Launch date (UTC)
1981-06-04 (45 years ago)
Launch vehicle
Unknown
Launch site
Plesetsk Missile And Space Complex (PKMTR)
Object type
Payload
Rocket body
Debris
Shape & HBR
Unknown shape, 0.1 m
Radar Cross Section
Medium (>0.1 m² and <1 m²)

Expand to show TLE details & history
Last TLE update: 12 hours ago

TLE from 12 hours ago
0 COSMOS 1275 DEB
1 17619U 81053KN  26149.87925535  .00004557  00000-0  15128-2 0  9997
2 17619  82.9422  33.5477 0015422 174.0717 308.2782 14.37558505112538
Epoch: 2026-05-29T21:06Z
TLE epoch observation values (Epoch: 2026-05-29T21:06:07.662Z)
Latitude
57.20544°
Longitude
-1.40621°
Altitude
769.379 km
Speed
7.479 km/s
True Right ascension
13h 30m 06s
True Declination
57° 02' 56"
Sunlit
Object was in daylight at epoch
Visualization orbit readout
Latitude
Unknown
Longitude
Unknown
Altitude
Unknown
Speed
Unknown
Apparent Right ascension
Unknown
Apparent Declination
Unknown
Sunlit
N/A
Visualization observer readout
Local Sidereal Time
18:48:26
Azimuth
Unknown
Elevation
Unknown
Doppler factor
Unknown
Orbital elements
Apogee altitude
774.653 km
Perigee altitude
752.625 km
Semi-major axis
7,141.776 km
Eccentricity
0.00154
Inclination
82.9422°
RAAN
33.5477°
Arg. of periapsis
174.0717°
True anomaly
308.1393°
Mean anomaly
308.2782°
Eccentric anomaly
308.20877°
Mean motion
3.59612 °/min
Orbital period
100.11 mins
BSTAR
0.0015128
Loading maneuver chart data...
Computing Atmospheric mass density...
Loading historical data...
Loading historical data...
Loading historical data...
Loading historical data...
Loading historical data...
Loading historical data...
Loading historical data...

Documentation

Showing up to 5 results
|